Location: Forst
(46.9333°N, 15.4333°E)
Time: 19:28:32
(UTC+00:00)

Cosmos 2056 Rocket - Pass Details

Date: 01 December 2020
Orbit: 741 x 801 km, 74.0° (Epoch: 27 January)

Event Time Altitude Azimuth Distance (km) Brightness Sun altitude
Rises 18:03:36 0° 337° (NNW) 3,251 7.0 -28.6°
Reaches altitude 10° 18:05:58 10° 337° (NNW) 2,330 6.2 -29.0°
Enters shadow 18:09:30 44° 334° (NNW) 1,081 4.3 -29.6°
